Location: Township of Eden
(38.4772°N, 100.1513°W)
Time: 01:25:15
(UTC+00:00)

Daily predictions for brighter satellites

Satellite Brightness Start Highest point End
(mag) Time Altitude Azimuth Time Altitude Azimuth Time Altitude Azimuth
USA 267 3.4 00:11:49 10° SE 00:18:23 88° NE 00:24:58 10° NW
Cosmos 1758 3.3 00:15:10 10° S 00:19:10 86° E 00:23:08 10° N
Meteor 1-24 Rocket 4.4 00:14:59 10° NNW 00:20:41 65° W 00:26:33 10° S
Cosmos 1536 Rocket 4.0 00:16:32 10° NNW 00:20:50 68° W 00:25:07 10° S
MOS 1-B 4.4 00:18:26 10° SSE 00:24:09 68° ENE 00:29:54 10° N
Cosmos 1892 Rocket 4.5 00:22:42 10° NNE 00:26:31 27° ENE 00:30:17 10° SE
SL-16 R/B 3.7 00:23:22 10° SE 00:26:37 16° E 00:29:52 10° ENE
NOSS 3-1 (C) 4.5 00:24:25 10° SSE 00:27:39 17° ESE 00:31:06 10° ENE
Cosmos 1953 2.8 00:23:59 10° SSE 00:27:44 39° E 00:31:32 10° NNE
deb Chang Zheng 4 3.5 00:23:46 10° SSE 00:27:51 57° ENE 00:31:59 10° N
Cosmos 1727 Rocket 4.0 00:23:00 10° N 00:29:12 67° E 00:35:18 10° SSE
Cosmos 1048 Rocket 4.0 00:24:11 10° NNW 00:29:32 76° ENE 00:34:48 10° SSE
CZ-4 R/B 3.0 00:28:10 10° ESE 00:30:28 15° ENE 00:32:48 10° NNE
Cosmos 405 Rocket 4.0 00:29:28 10° NNE 00:32:37 22° ENE 00:35:46 10° SE
Cosmos 468 4.5 00:28:03 10° NNW 00:33:22 78° ENE 00:38:37 10° SSE
CZ-2C R/B 1.9 00:31:55 10° SW 00:35:09 34° SSE 00:38:07 11° ESE
Cosmos 2082 3.7 00:30:24 10° NNW 00:35:59 63° ENE 00:41:32 10° SSE
Landsat 5 3.7 00:34:04 10° NNE 00:38:24 59° E 00:42:48 10° S
SL-8 R/B 3.7 00:37:37 10° SW 00:42:24 80° SE 00:47:05 11° ENE
Cosmos 2322 Rocket 3.6 00:39:43 10° SE 00:43:00 16° E 00:45:53 11° ENE
Iridium 4 Rocket 4.0 00:42:26 10° NNE 00:46:25 29° E 00:50:39 10° SE
CZ-2D R/B 3.5 00:43:04 10° S 00:46:53 76° W 00:50:45 10° NNW
Cosmos 1125 Rocket 4.1 00:43:19 10° SSW 00:48:31 61° WNW 00:53:43 10° N
ATLAS 5 CENTAUR R/B 1.2 00:46:07 10° SSW 00:49:52 87° WNW 00:54:00 10° NNE
Cosmos 494 Rocket 4.1 00:50:17 10° NNW 00:55:30 78° WSW 01:00:39 10° SSE
X-37B 2.1 00:53:09 10° WNW 00:55:57 27° N 00:58:00 15° NE
SL-08 RB Rocket 4.2 00:52:06 10° SE 00:56:14 37° ENE 01:00:27 10° N
Genesis I 3.4 00:53:15 10° NW 00:57:21 78° WSW 01:01:24 10° SSE
CZ-4B R/B 3.4 00:53:25 10° SSE 00:59:03 83° WSW 01:04:46 10° NNW
Meteor 1-21 Rocket 4.3 00:57:25 10° N 01:03:18 81° E 01:09:13 10° SSE
SKYMED 2 4.0 00:59:29 10° N 01:03:47 65° WNW 01:08:05 10° SSW
Cosmos 1000 Rocket 4.4 00:59:38 10° N 01:05:49 78° E 01:12:01 10° S
YAOGAN 1 2.8 01:05:55 10° SE 01:10:00 43° ENE 01:14:07 10° N
Cosmos 1908 4.4 01:07:22 10° SSW 01:11:06 46° W 01:14:51 10° N
Okean O Rocket 1.9 01:08:39 10° S 01:12:58 69° WSW 01:17:18 10° NNW
MOS 1-B Rocket 4.1 01:06:23 10° NNE 01:13:09 84° WNW 01:19:00 10° SSW
Cosmos 1455 Rocket 3.1 01:08:46 10° S 01:13:10 82° W 01:17:37 10° N
HJ-1C 4.1 01:14:53 32° NE 01:14:53 32° NE 01:17:23 10° N
Cosmos 1980 Rocket 3.3 01:14:41 10° SW 01:20:04 44° WNW 01:25:31 10° N
DMSP B5D1-3 4.5 01:16:39 10° NNE 01:21:44 59° E 01:26:47 10° S
Cosmos 1607 4.0 01:15:48 10° NNW 01:22:05 79° WSW 01:28:11 10° SSE
H-2A R/B 2.0 01:18:14 10° NNE 01:22:16 53° E 01:26:20 10° S
ARGOS 3.2 01:17:49 10° S 01:23:12 80° WSW 01:28:39 10° NNW
NOSS 2-3 (E) 3.6 01:20:14 10° S 01:24:00 45° ESE 01:24:51 39° E
Cosmos 2263 Rocket 2.1 01:19:29 10° NNW 01:25:01 62° ENE 01:29:18 17° SE
Okean-O 3.1 01:25:37 35° E 01:25:53 36° ENE 01:29:56 10° N
Cosmos 1544 Rocket 3.4 01:22:17 10° S 01:26:44 78° E 01:31:12 10° N
USA 229 DEB 4.1 01:22:09 10° S 01:27:37 32° ESE 01:28:51 30° E
USA 229 4.1 01:22:17 10° S 01:27:43 32° ESE 01:28:52 30° E
Feng Yun 1-1 Rocket 4.3 01:29:38 10° S 01:35:06 80° WSW 01:40:46 10° NNW
Okean 1-7 Rocket 3.4 01:32:08 10° N 01:36:32 81° E 01:40:58 10° S
MetOp-A 4.3 01:34:57 34° ESE 01:36:44 47° ENE 01:41:50 10° N
H-2A R/B 2.8 01:32:56 10° S 01:37:19 70° WSW 01:41:36 10° NNW
Tiangong 1.2 01:34:48 10° WSW 01:37:42 72° W 01:37:42 72° W
Cosmos 1934 Rocket 4.1 01:33:54 10° SSW 01:40:02 75° W 01:46:07 10° N
DMSP B5D2-2 3.9 01:35:15 10° NNE 01:40:32 84° ESE 01:45:45 10° SSW
Cosmos 371 Rocket 3.3 01:38:21 10° SSW 01:43:12 82° WNW 01:48:06 10° NNE
CSL-04 Rocket 3.9 01:42:48 43° E 01:43:35 46° ENE 01:48:52 10° N
CZ-2C R/B 4.2 01:41:58 10° N 01:47:06 38° WNW 01:52:08 10° SW
H-2A R/B 4.3 01:44:54 10° SSW 01:49:21 27° W 01:53:53 10° NW
NOSS 3-1 (A) 3.5 01:45:06 10° S 01:49:07 42° SE 01:49:07 42° SE
Cosmos 1300 3.8 01:51:15 10° SSW 01:54:52 43° W 01:58:32 10° N
Cosmos 2123 Rocket 4.4 01:53:06 10° NNW 01:59:21 64° W 02:05:32 10° S
Cosmos 1844 Rocket 4.2 01:55:17 10° N 01:57:44 20° NNE 01:57:44 20° NNE
CZ-4 R/B 2.7 02:01:25 10° SSW 02:05:05 38° W 02:08:51 10° NNW
IRS-P2 Rocket 4.4 02:05:51 76° ESE 02:06:07 79° ENE 02:11:22 10° N
SL-16 R/B 2.5 02:04:27 10° SSW 02:10:04 65° WNW 02:14:56 14° NNE
NOSS 2-3 (D) 4.1 02:07:13 10° SW 02:10:34 53° W 02:10:34 53° W
CZ-2C R/B 3.3 02:11:03 10° WSW 02:12:18 20° WSW 02:12:18 20° WSW
NOSS 3-1 (C) 3.6 02:12:35 10° SW 02:17:37 57° NW 02:19:54 34° N
Gbstr 26 Del rocket 4.4 02:16:05 10° NW 02:23:41 87° SW 02:25:11 64° SE
Cosmos 2344 4.4 02:14:35 10° NNW 02:24:00 61° NE 02:26:57 50° E
Cosmos 2322 Rocket 2.5 02:20:52 10° SSW 02:26:24 63° WNW 02:27:50 47° N
ATLAS 5 CENTAUR R/B 4.4 02:34:38 10° NW 02:35:18 10° NW 02:35:57 10° NNW
Cosmos 2360 Rocket 4.0 02:34:24 10° SSW 02:36:11 21° SSW 02:36:11 21° SSW
Lacrosse 4 Rocket 4.3 02:46:18 10° NNW 02:46:33 11° NNW 02:46:33 11° NNW
Cosmos 2082 Rocket 4.2 09:34:29 24° NE 09:34:29 24° NE 09:36:44 10° NNE
COSMOS 2455 4.4 09:46:54 29° ESE 09:47:23 30° ESE 09:52:31 10° NE
CZ-2C R/B 4.3 09:58:27 10° NNE 10:00:30 24° NE 10:00:30 24° NE
Lacrosse 5 rocket 3.9 10:07:30 19° NE 10:07:30 19° NE 10:08:50 10° NE
ATLAS CENTAUR R/B 4.1 10:08:14 14° NNE 10:08:14 14° NNE 10:08:50 10° NNE
Cosmos 1980 Rocket 2.6 10:16:10 57° ESE 10:16:10 57° ESE 10:20:55 10° SSE
CZ-4B R/B 4.2 10:17:08 10° NNE 10:21:05 51° NNE 10:21:05 51° NNE
FENGYUN 3A 3.8 10:17:53 10° NNE 10:23:18 69° ESE 10:23:22 68° ESE
Cosmos 2327 Rocket 4.4 10:17:17 10° N 10:23:38 87° E 10:29:49 10° S
ARIANE 5 R/B 4.4 10:19:27 10° N 10:20:57 20° N 10:20:57 20° N
Lacrosse 5 4.3 10:29:35 12° N 10:31:43 15° NNE 10:34:31 10° NE
USA 234 3.1 10:26:06 10° NE 10:32:40 88° NW 10:33:46 65° SW
Meteor 1-22 Rocket 4.3 10:37:43 10° N 10:43:42 81° E 10:49:24 10° SSE
Cosmos 2278 3.6 10:47:20 30° NNW 10:50:15 85° WSW 10:55:58 10° SSE
USA 229 DEB 4.3 10:45:24 10° NNW 10:52:49 66° NE 11:00:36 10° SE
USA 229 4.3 10:45:30 10° NNW 10:52:54 66° NE 11:00:41 10° SE
ALOS 2.6 10:52:00 10° N 10:55:41 50° NNW 10:55:41 50° NNW
Cosmos 2341 Rocket 3.9 10:51:10 10° N 10:57:30 87° E 11:03:45 10° S
Cosmos 1707 2.9 10:59:21 38° S 11:00:43 71° E 11:04:37 10° NNE
DELTA 2 R/B (1) 4.1 11:00:50 38° SSW 11:00:56 38° SSW 11:06:01 10° SE
SL-16 R/B 3.2 11:00:17 10° N 11:05:45 46° ENE 11:11:10 10° SE
Cosmos 44 4.3 11:03:48 10° NNW 11:08:29 43° NE 11:12:52 10° SE
OAO 2 Rocket 3.8 11:11:54 36° SW 11:13:29 50° S 11:18:17 10° E
Cosmos 1378 Rocket 3.4 11:10:08 10° S 11:14:30 79° W 11:18:57 10° N
NOSS 3-1 (A) 4.1 11:07:18 10° NNW 11:15:10 89° SW 11:24:09 10° SSE
Cosmos 2082 Rocket 3.5 11:16:22 22° NW 11:16:22 22° NW 11:20:01 10° N
Cosmos 773 Rocket 3.9 11:12:09 10° SSW 11:17:20 90° WNW 11:22:37 10° NNE
Cosmos 1125 Rocket 3.8 11:17:44 39° W 11:17:53 39° WSW 11:22:39 10° S
BREEZE-M DEB (TANK) 3.2 11:18:25 25° N 11:18:25 25° N 11:20:27 10° NE
Okean 2 Rocket 3.3 11:14:42 10° NNW 11:19:03 47° W 11:23:22 10° SSW
Cosmos 2322 Rocket 3.2 11:16:19 10° N 11:21:47 47° ENE 11:27:12 10° SE
SL-4 R/B 4.4 11:22:21 11° NNW 11:24:30 15° N 11:27:00 10° NE
Cosmos 389 Rocket 2.7 11:23:05 10° N 11:26:36 68° E 11:30:06 10° SSE
Cosmos 1959 Rocket 4.4 11:21:26 10° N 11:27:34 84° W 11:33:42 10° S
CZ-2C R/B 4.2 11:23:31 10° SE 11:28:28 37° ENE 11:33:31 10° N
Cosmos 2366 rocket 3.9 11:22:57 10° N 11:29:18 81° W 11:35:38 10° S
Cosmos 864 Rocket 4.4 11:24:07 10° N 11:30:19 82° W 11:36:32 10° S
METEOR-M 4.4 11:27:11 10° N 11:32:15 45° WNW 11:37:18 10° SW
CZ-2C R/B 4.4 11:29:19 10° NNW 11:30:41 18° NNW 11:30:41 18° NNW
H-2A R/B 3.6 11:28:46 10° NNE 11:32:29 51° E 11:36:08 10° S
Cosmos 1470 3.1 11:29:11 10° NNW 11:32:51 40° W 11:36:29 10° SSW
COSMOS 2455 3.2 11:30:08 25° WSW 11:33:06 42° NW 11:38:48 10° NNE
Meteor 1-21 4.3 11:27:45 10° SSW 11:33:19 54° WNW 11:38:50 10° N
Cosmos 2360 Rocket 3.7 11:29:56 10° N 11:35:09 36° ENE 11:40:20 10° SE
Cosmos 1484 Rocket 3.5 11:35:07 10° N 11:38:29 31° WNW 11:39:07 29° W
Cosmos 1538 Rocket 4.5 11:33:53 10° S 11:39:06 66° ESE 11:44:25 10° NNE
FALCON 9 DEB 4.2 11:39:56 26° SW 11:40:00 26° SW 11:42:51 10° S
CZ-2C R/B 4.0 11:37:53 10° NNW 11:39:52 16° NW 11:39:52 16° NW
Cosmos 2181 Rocket 4.2 11:36:49 10° SSW 11:42:41 47° WNW 11:48:39 10° N
Lacrosse 5 rocket 3.0 11:43:08 18° NW 11:44:08 19° NNW 11:47:20 10° NNE
ATLAS CENTAUR R/B 3.5 11:44:24 11° NW 11:44:24 11° NW 11:45:36 10° NNW
Cosmos 1184 Rocket 2.6 11:41:10 10° S 11:44:20 88° W 11:47:32 10° N
GEOS 3 Rocket 3.5 11:41:25 10° NNE 11:46:32 71° NW 11:51:35 10° SW
CZ-4C R/B 4.3 11:40:12 10° NNW 11:47:02 40° NE 11:54:49 10° ESE
BREEZE-M DEB (TANK) 3.5 11:46:46 15° NW 11:47:52 18° N 11:49:38 10° NE
Cosmos 1674 2.5 11:44:48 10° SSW 11:48:27 62° W 11:52:08 10° N
Cosmos 1674 Rocket 4.4 11:47:26 14° SW 11:50:20 27° WNW 11:54:01 10° NNW
Okean 1 Rocket 3.1 11:46:57 10° NNW 11:51:17 54° W 11:55:37 10° S
Cosmos 1626 2.0 11:51:02 10° S 11:54:43 86° W 11:58:25 10° N
ISS -0.7 11:55:26 10° SSE 11:57:16 14° SE 11:59:08 10° E
